Weather History for KIGM - February, 2013

Change the Weather History Date:

Thursday, February 14, 2013

  Actual Average Record
Temperature  
Mean Temperature 45 °F 47 °F  
Max Temperature 62 °F 59 °F 78 °F (1957)
Min Temperature 28 °F 34 °F 20 °F (1949)
Degree Days  
Heating Degree Days 20 18  
Month to date heating degree days 285 267  
Since 1 July heating degree days 2158 2172  
Cooling Degree Days 0 0  
Month to date cooling degree days 0 0  
Year to date cooling degree days 0 0  
Moisture  
Dew Point 23 °F    
Average Humidity 49    
Maximum Humidity 78    
Minimum Humidity 20    
Precipitation  
Precipitation 0.00 in 0.04 in 1.52 in (1954)
Month to date precipitation 0.20 0.60  
Year to date precipitation 0.96 1.62  
Sea Level Pressure  
Sea Level Pressure 30.12 in    
Wind  
Wind Speed 8 mph (NE)    
Max Wind Speed 24 mph    
Max Gust Speed 30 mph    
Visibility 10 miles    
Events      
T = Trace of Precipitation, MM = Missing Value Source: NWS Daily Summary

Daily Weather History Graph

Daily Weather History Graph

Search for Another Location

Airport or City:

Trip Planner

Search our weather history database for the weather conditions in past years. The results will help you decide how hot, cold, wet, or windy it might be!

Date:

Astronomy

Feb. 14, 2013 Rise Set
Actual Time 7:22 AM MST 6:17 PM MST
Civil Twilight 6:56 AM MST 6:43 PM MST
Nautical Twilight 6:26 AM MST 7:13 PM MST
Astronomical Twilight 5:57 AM MST 7:42 PM MST
Moon 9:39 AM MST (2/14) 11:10 PM MST (2/14)
Length of Visible Light 11h 46m
Length of Day
10h 54m
Waxing Crescent, 22% of the Moon is Illuminated
Feb 14
Waxing Crescent
Feb 17
First Quarter
Feb 25
Full
Mar 4
Last Quarter
Mar 11
New

Hourly Weather History & Observations

Time (MST) Temp. Windchill Dew Point Humidity Pressure Visibility Wind Dir Wind Speed Gust Speed Precip Events Conditions
12:51 AM 35.1 °F 28.6 °F 24.1 °F 64% 30.10 in 10.0 mi ESE 8.1 mph - N/A   Clear
1:51 AM 35.6 °F 32.8 °F 24.8 °F 65% 30.17 in 10.0 mi SE 3.5 mph - N/A   Clear
2:51 AM 33.1 °F - 23.0 °F 66% 30.09 in 10.0 mi Calm Calm - N/A   Clear
3:51 AM 35.1 °F - 23.0 °F 61% 30.09 in 10.0 mi Calm Calm - N/A   Clear
4:51 AM 30.2 °F - 24.8 °F 80% 30.17 in 10.0 mi Calm Calm - N/A   Clear
5:51 AM 28.9 °F - 23.0 °F 78% 30.11 in 10.0 mi Calm Calm - N/A   Clear
6:51 AM 30.0 °F - 23.0 °F 75% 30.12 in 10.0 mi Calm Calm - N/A   Clear
7:51 AM 33.1 °F - 24.1 °F 70% 30.14 in 10.0 mi Calm Calm - N/A   Clear
8:51 AM 41.0 °F - 26.1 °F 55% 30.15 in 10.0 mi Calm Calm - N/A   Clear
9:51 AM 48.9 °F - 25.0 °F 39% 30.14 in 10.0 mi NE 5.8 mph - N/A   Clear
10:51 AM 52.0 °F - 25.0 °F 35% 30.14 in 10.0 mi NNE 9.2 mph - N/A   Clear
11:51 AM 54.0 °F - 24.1 °F 31% 30.14 in 10.0 mi North 6.9 mph - N/A   Clear
12:51 PM 57.9 °F - 24.1 °F 27% 30.12 in 10.0 mi NE 13.8 mph - N/A   Clear
1:51 PM 61.0 °F - 21.0 °F 21% 30.09 in 10.0 mi North 10.4 mph 19.6 mph N/A   Clear
2:51 PM 62.1 °F - 21.9 °F 21% 30.07 in 10.0 mi North 17.3 mph 23.0 mph N/A   Clear
3:51 PM 61.0 °F - 21.9 °F 22% 30.07 in 10.0 mi North 15.0 mph - N/A   Clear
4:51 PM 60.1 °F - 21.0 °F 22% 30.07 in 10.0 mi NNW 20.7 mph - N/A   Clear
5:51 PM 55.9 °F - 21.0 °F 26% 30.09 in 10.0 mi North 19.6 mph - N/A   Clear
6:51 PM 51.1 °F - 21.0 °F 31% 30.11 in 10.0 mi North 13.8 mph - N/A   Clear
7:51 PM 45.0 °F 41.8 °F 21.9 °F 40% 30.14 in 10.0 mi East 5.8 mph - N/A   Clear
8:51 PM 44.1 °F 38.6 °F 23.0 °F 43% 30.14 in 10.0 mi NE 10.4 mph - N/A   Clear
9:51 PM 41.0 °F 35.8 °F 23.0 °F 49% 30.16 in 10.0 mi ENE 8.1 mph - N/A   Clear
10:51 PM 41.0 °F 35.8 °F 23.0 °F 49% 30.17 in 10.0 mi East 8.1 mph - N/A   Clear
11:51 PM 39.9 °F 33.9 °F 23.0 °F 51% 30.18 in 10.0 mi ENE 9.2 mph - N/A   Clear